Portada
METAR-TAF:

METAR-TAF

Aeroports :

Dodge County Airport

Juneau, Wisconsin, Estats Units d'Amèrica

latitud: 43-25-36N, longitud: 088-42-12W, altitud: 285 m

Observació

L'informe es va fer fa 11 minuts, a les 17:55 UTC
Vent 11 kt del Sud-Oest
Temperatura -2°C
Humitat 86%
Pressió 1021 hPa
Visibilitat: 11.3 km
Cel clar

METAR: KUNU 101755Z AUTO 23011KT 7SM CLR M02/M04 A3016 RMK AO2 T10181042 11018 21109 TSNO

Hora: 12:06 (18:06 UTC)


TAF: manca

Observacions i pronòstics meteorològics de més de 4000 aeroports (METAR i TAF).

Les estacions disponibles són els punts grocs i vermells al mapa.

Posi el ratolí al punt desitjat per veure el nom de l'estació.

Feu clic per veure les observacions i els pronòstics meteorològics.

Per canviar el mapa: feu clic els botons verds amb una creu de color negre per apropar; al botó verd amb un guió per allunyar la imatge; o en les fletxes verdes per a mapes adjacents.


METAR-TAF: